Location: Leipzig
(51.3392°N, 12.3528°E)
Time: 06:10:14
(UTC+01:00)

ISS - Pass Details

Date: 11 January 2018
Orbit: 402 x 407 km, 51.6° (Epoch: 19 January)

Event Time Altitude Azimuth Distance (km) Brightness Sun altitude
Exits shadow 05:41:19 44° 134° (SE) 571 -2.8 -22.6°
Drops below altitude 10° 05:43:46 10° 115° (ESE) 1,466 0.0 -22.2°
Sets 05:45:51 0° 113° (ESE) 2,325 1.4 -21.9°
